Zurück zum Katalog

STARLINK-36137

AktivKommunikationVLEO
NORAD 67033·PAYLOAD·🇺🇸 United States

Gestartet Dec 11, 2025 von Cape Canaveral Space Force Station

Loading…

Nächste Überflüge (nächste 24 Stunden)

TLE

AktuellSource: CelesTrak SupGP

Epoche: Sep 14, 2026, 22:36 UTC

1 67033C 25294D   26257.94215278  .00050593  00000+0  18320-2 0  2575
2 67033  43.0013  48.9496 0001614 279.5484 193.4497 15.27560780    12

Verfolge STARLINK-36137 in Echtzeit mit AllMySat

Download on the App Store